Weather Roundup
Issued by NWS Chicago, IL

Home | Current Version | Previous Version | Graphics & Text | Print | Product List | Glossary On
Versions: 1 2 3 4 5 6 7 8 9 10 11 12 13 14 15 16 17 18 19 20 21 22 23 24 25 26 27 28 29 30 31 32 33 34 35 36 37 38 39 40 41 42 43 44 45 46 47 48 49 50
000
NZUS59 KLOT 262003
HRRLOT

CHICAGO AREA WEATHER ROUNDUP
NATIONAL WEATHER SERVICE CHICAGO/ROMEOVILLE IL
200 PM CST SUN FEB 26 2017

NOTE: "FAIR" INDICATES FEW OR NO CLOUDS BELOW 12,000 FEET WITH NO
SIGNIFICANT WEATHER AND/OR OBSTRUCTIONS TO VISIBILITY.

* THESE STATIONS ARE NOT UNDER NWS QUALITY CONTROL. THEY ALSO MAY NOT
  REPORT WEATHER SUCH AS PRECIPITATION OR FOG.

ILZ005-006-012>014-019>023-262100-
NORTHEAST ILLINOIS

CITY           SKY/WX    TMP DP  RH WIND       PRES   REMARKS
OHARE          MOSUNNY   47  20  34 SW24G35   29.92F
MIDWAY         MOSUNNY   48  19  31 SW22G35   29.94F
AURORA         MOSUNNY   48  23  37 SW21G30   29.94F
LANSING*       SUNNY     47  25  42 SW26G37   29.96F
JOLIET*        MOSUNNY   48  21  34 SW18G25   29.96F
WAUKEGAN       SUNNY     46  22  38 W10G25    29.89S
DUPAGE AIRPORT SUNNY     47  20  34 SW23G35   29.93S
WHEELING       SUNNY     46  18  32 W18G29    29.92F
KANKAKEE*      CLOUDY    49  19  30 SW22G31   29.99F
MORRIS*        SUNNY     48  21  34 W22G28    29.95F
LEWIS AIRPORT* MOSUNNY   47  27  45 SW17G29   29.95F
NORTHERLY ISL    N/A     45  16  31 S14         N/A
$$

WIZ051-052-058>065-066-070>072-262100-
SOUTHEAST WISCONSIN

CITY           SKY/WX    TMP DP  RH WIND       PRES   REMARKS
MILWAUKEE      MOSUNNY   44  23  43 SW20G32   29.87F
KENOSHA*       SUNNY     44  25  47 W23G33    29.88S
RACINE*        PTSUNNY   44  23  43 SW14G32   29.89F
WAUKESHA       MOSUNNY   37  25  60 W15G25    29.86F
WEST BEND      SUNNY     37  28  70 SW16G22   29.83S
$$

INZ001>003-010>013-019-020-262100-
NORTHWEST INDIANA

CITY           SKY/WX    TMP DP  RH WIND       PRES   REMARKS
GARY*          MOSUNNY   48  12  23 SW28G41   29.97F
MICHIGAN CITY* NOT AVBL
RENSSELAER*    NOT AVBL
VALPARAISO     SUNNY     48  19  31 SW25G36   29.98F
$$

LMZ740>746-262100-
SOUTHERN LAKE MICHIGAN

STATION/POSITION TIME  SKY/WX   TEMP WIND        PRES    VSBY
                                AIR  DIR/SP/G
                 (UTC)          (F)  (DEG/KT/KT) (MB)    (MI)
HARRISON CRIB    1940            45  220/ 28/ 34   N/A
BURNHAM HARBOR   2000            46  230/  8/ 23   N/A
CALUMET HARBOR   1930            45  220/ 16/ 22 1013.5F
BURNS HARBOR     1940            44  210/ 28/ 34 1014.6F
MICHIGAN CITY    1940            43  200/ 28/ 32   N/A
$$

ABBREVIATIONS USED IN REMARKS
   TC - TEMPERATURE IN CELSIUS
  WCI - WIND CHILL INDEX
   HX - HEAT INDEX
  VSB - VISIBILITY
$$




USA.gov is the U.S. government's official web portal to all federal, state and local government web resources and services.